Regional Weather Roundup
Issued by NWS Sioux Falls, SD

Home | Current Version | Previous Version | Text Only | Print | Product List | Glossary Off
Versions: 1 2 3 4 5 6 7 8 9 10 11 12 13 14 15 16 17 18 19 20 21 22 23 24 25 26 27 28 29 30 31 32 33 34 35 36 37 38 39 40 41 42 43 44 45 46 47 48 49 50

000
ASUS43 KFSD 251110
RWRFSD

WEATHER ROUNDUP FOR SE SOUTH DAKOTA/SW MINNESOTA/NW IOWA
NATIONAL WEATHER SERVICE SIOUX FALLS SD
600 AM CDT TUE JUL 25 2017

NOTE: "FAIR" INDICATES FEW OR NO CLOUDS BELOW 12,000 FEET WITH NO
SIGNIFICANT WEATHER AND OR OBSTRUCTIONS TO VISIBILITY.


SDZ038>040-050-052>070-251200-
SOUTHEAST SOUTH DAKOTA

CITY           SKY/WX    TMP DP  RH WIND       PRES   REMARKS
BROOKINGS      CLEAR     68  64  87 S14       29.90S
CHAMBERLAIN    CLEAR     79  67  65 SW12      29.81R
HURON          CLEAR     70  68  93 MISG      29.81S
MADISON        FAIR      66  66 100 S17       29.89F
MITCHELL       CLEAR     73  69  87 SE13      29.84R
SIOUX FALLS    PTCLDY    70  67  90 S14       29.91F
WINNER         FAIR      77  63  61 S20G25    29.82R
YANKTON        CLEAR     72  68  87 E5        29.89S
$$

MNZ071-072-080-081-089-090-097-098-251200-
SOUTHWEST MINNESOTA

CITY           SKY/WX    TMP DP  RH WIND       PRES   REMARKS
FAIRMONT       MOCLDY    66  63  90 S16       30.01F
JACKSON        PTCLDY    64  63  94 S13       30.00S
LUVERNE        PTCLDY    68  61  77 S10       29.94S
MARSHALL       MOCLDY    68  64  87 SE15G23   29.91F
MONTEVIDEO     MOCLDY    66  66 100 S12       29.91F
PIPESTONE      CLEAR     66  63  88 S12G18    29.93R
REDWOOD FALLS  MOCLDY    68  63  84 SE13G23   29.95F
TRACY          CLOUDY    69  65  88 SE10G17   29.94S
WINDOM         PTCLDY    66  63  88 SE14      29.97S
WORTHINGTON    PTCLDY    66  63  90 S14G24    29.97F
$$

IAZ001>003-012>014-020>022-031-032-NEZ013-014-SDZ071-251200-
NORTHWEST IOWA

CITY           SKY/WX    TMP DP  RH WIND       PRES   REMARKS
CHEROKEE       CLEAR     67  64  93 SE8       29.99S
DENISON        CLEAR     70  64  83 S8        30.02R
ESTHERVILLE    MOCLDY    64  64 100 S14G21    30.00S
ORANGE CITY    CLEAR     68  64  88 SE9       29.97S
SHELDON        CLEAR     68  63  83 SE13      29.96S
SIOUX CITY     CLEAR     70  67  90 SE7       29.96R
SPENCER        CLEAR     67  64  90 SE13      30.00S
STORM LAKE     CLEAR     64  63  94 SE10      30.02R
$$

ABBREVIATIONS USED IN REMARKS
   TC - TEMPERATURE IN CELSIUS
  WCI - WIND CHILL INDEX
   HX - HEAT INDEX
  VSB - VISIBILITY





USA.gov is the U.S. government's official web portal to all federal, state and local government web resources and services.